This demonstration page uses our WeatherBlox Daily Observations layout. Learn more.

Left ArrowRight Arrow

34.16533, -84.80231

Hourly Observations for August 2, 2019

Temp ( °F °C ) Dew Point ( °F °C ) Humidity (%) Winds ( mph kmh ) Pressure ( in mb ) Visibility ( mi km ) Precip ( " mm )
12:53 am 00:53 Clear 72 22.2 67 19.4 84 84 VRB 6 9 30.05 1018 10 16 0.00 0.00
1:53 am 01:53 Clear 71 21.7 66 18.9 84 84 Calm 30.04 1017 10 16 0.00 0.00
2:53 am 02:53 Clear 68 20 65 18.3 90 90 Calm 30.03 1017 10 16 0.00 0.00
3:53 am 03:53 Clear 68 20 65 18.3 90 90 Calm 30.03 1017 10 16 0.00 0.00
4:53 am 04:53 Clear 67 19.4 65 18.3 93 93 Calm 30.02 1017 10 16 0.00 0.00
5:40 am 05:40 Mostly Clear 68 20 66 18.9 93 93 Calm 30.04 1017 10 16 0.00 0.00
5:53 am 05:53 Clear 69 20.6 66 18.9 90 90 Calm 30.02 1017 10 16 0.00 0.00
6:53 am 06:53 Sunny 69 20.6 66 18.9 90 90 Calm 30.03 1017 10 16 0.00 0.00
7:53 am 07:53 Sunny 70 21.1 67 19.4 90 90 Calm 30.04 1017 10 16 0.00 0.00
8:53 am 08:53 Sunny 73 22.8 68 20 84 84 Calm 30.05 1018 10 16 0.00 0.00
9:53 am 09:53 Mostly Sunny 78 25.6 69 20.6 74 74 SE 5 7 30.06 1018 10 16 0.00 0.00
10:53 am 10:53 Mostly Sunny 81 27.2 70 21.1 69 69 SE 7 11 30.05 1018 10 16 0.00 0.00
11:12 am 11:12 Mostly Cloudy 81 27.2 69 20.6 67 67 SE 7 11 30.05 1018 10 16 0.00 0.00
11:34 am 11:34 Partly Cloudy 82 27.8 70 21.1 67 67 ESE 9 15 30.05 1018 10 16 0.00 0.00
11:53 am 11:53 Partly Cloudy 82 27.8 70 21.1 67 67 E 7 11 30.05 1018 10 16 0.00 0.00
12:12 pm 12:12 Mostly Cloudy 83 28.3 70 21.1 65 65 VRB 6 9 30.05 1018 10 16 0.00 0.00
12:53 pm 12:53 Mostly Cloudy 83 28.3 69 20.6 63 63 E 7 11 30.05 1018 10 16 0.00 0.00
1:10 pm 13:10 Mostly Cloudy 85 29.4 70 21.1 61 61 Calm 30.04 1017 10 16 0.00 0.00
1:53 pm 13:53 Mostly Cloudy 87 30.6 71 21.7 59 59 VRB 3 6 30.03 1017 10 16 0.00 0.00
2:03 pm 14:03 Mostly Cloudy with Nearby Thunderstorms 88 31.1 71 21.7 57 57 VRB 3 6 30.01 1016 10 16 0.00 0.00
2:23 pm 14:23 Cloudy 85 29.4 69 20.6 59 59 E 7 11 30.02 1017 10 16 0.00 0.00
2:37 pm 14:37 Cloudy with Nearby Thunderstorms 84 28.9 69 20.6 61 61 ENE 6 9 30.01 1016 10 16 0.00 0.00
2:53 pm 14:53 Cloudy with Nearby Thunderstorms 79 26.1 72 22.2 79 79 N 6 9 30.01 1016 5 8 0.03 0.76
3:26 pm 15:26 Cloudy with Thunderstorms 77 25 73 22.8 88 88 N 7 11 30.01 1016 3 5 0.06 1.52
3:42 pm 15:42 Cloudy 77 25 73 22.8 88 88 VRB 3 6 30.00 1016 9 14 0.06 1.52
3:53 pm 15:53 Mostly Cloudy 77 25 72 22.2 85 85 Calm 29.99 1016 8 13 0.06 1.52
4:53 pm 16:53 Partly Cloudy 78 25.6 74 23.3 87 87 Calm 29.98 1015 9 14 0.01 0.25
5:53 pm 17:53 Sunny with Nearby Thunderstorms 84 28.9 74 23.3 72 72 NNE 3 6 29.97 1015 10 16 0.00 0.00
6:10 pm 18:10 Sunny 85 29.4 74 23.3 70 70 VRB 3 6 29.96 1015 10 16 0.00 0.00
6:53 pm 18:53 Sunny 82 27.8 69 20.6 65 65 ENE 5 7 29.96 1015 10 16 0.00 0.00
7:53 pm 19:53 Sunny 79 26.1 70 21.1 74 74 Calm 29.96 1015 10 16 0.00 0.00
8:53 pm 20:53 Clear 75 23.9 71 21.7 88 88 Calm 29.97 1015 10 16 0.00 0.00
9:53 pm 21:53 Clear 75 23.9 71 21.7 88 88 Calm 29.99 1016 10 16 0.00 0.00
10:53 pm 22:53 Clear 73 22.8 70 21.1 90 90 Calm 29.99 1016 10 16 0.00 0.00
11:53 pm 23:53 Clear 72 22.2 70 21.1 94 94 Calm 30.00 1016 9 14 0.00 0.00

Powered by AerisWeather